Track ONEWEB-0274 now! 10-day predictions ONEWEB-0274 is classified as:
1 48992U 21060AB 22142.91668981 .00048163 00000-0 12534+0 0 9996 2 48992 87.9104 164.6483 0001779 79.9289 39.7428 13.16567592 45358